Location: Castellar de la Frontera
(36.3200°N, 5.4500°W)
Time: 08:43:43
(UTC+02:00)

ISS - Pass Details

Date: 20 July 2018
Orbit: 402 x 408 km, 51.6° (Epoch: 16 July)

Event Time Altitude Azimuth Distance (km) Brightness Sun altitude
Rises 05:25:59 0° 320° (NW) 2,327 0.1 -19.2°
Reaches altitude 10° 05:28:18 10° 334° (NNW) 1,465 -0.8 -18.9°
Maximum altitude 05:31:06 26° 32° (NNE) 850 -1.4 -18.5°
Drops below altitude 10° 05:33:54 10° 91° (E) 1,461 -0.4 -18.1°
Sets 05:36:12 0° 105° (ESE) 2,318 0.5 -17.8°
